• In Belarus
  • List of Countries
  • For 7 days
  • Water Temperature
  • Satellite Maps
  • Weather Map
  • Weather Widgets
  • user-avatar
    Login

    Hourly Weather Sainte-Agathe-des-Monts

    Today, 21 November, Tuesday

    Time Temperature Precipitation Wind Pressure Humidity
    00:00 -9°C° 0 mm 1 mps 727 mmHg 75%
    01:00 -8°C° 0 mm 1 mps 726 mmHg 73%
    02:00 -8°C° 0 mm 2 mps 726 mmHg 75%
    03:00 -7°C° 0 mm 2 mps 726 mmHg 78%
    04:00 -6°C° 0 mm 2 mps 725 mmHg 80%
    05:00 -5°C° 0 mm 2 mps 725 mmHg 82%
    06:00 -6°C° 0 mm 3 mps 725 mmHg 85%
    07:00 -5°C° 0 mm 3 mps 724 mmHg 87%
    08:00 -4°C° 0 mm 3 mps 724 mmHg 82%
    09:00 -2°C° 0 mm 4 mps 724 mmHg 77%
    10:00 -1°C° 0 mm 5 mps 723 mmHg 72%
    11:00 0°C° 0 mm 5 mps 723 mmHg 70%
    12:00 +1°C° 0 mm 5 mps 723 mmHg 67%
    13:00 +2°C° 0 mm 6 mps 723 mmHg 64%
    14:00 +2°C° 0 mm 5 mps 723 mmHg 67%
    15:00 +1°C° 0 mm 5 mps 723 mmHg 71%
    16:00 +1°C° 0 mm 4 mps 723 mmHg 75%
    17:00 +1°C° 0 mm 4 mps 723 mmHg 77%
    18:00 +1°C° 0 mm 4 mps 723 mmHg 80%
    19:00 0°C° 0 mm 4 mps 723 mmHg 82%
    20:00 0°C° 0.1 mm 4 mps 723 mmHg 84%
    21:00 0°C° 0.1 mm 4 mps 723 mmHg 86%
    22:00 0°C° 0.1 mm 4 mps 724 mmHg 88%
    23:00 +1°C° 0.4 mm 3 mps 724 mmHg 90%

    Tomorrow, 22 November, Wednesday

    Time Temperature Precipitation Wind Pressure Humidity
    00:00 +1°C° 0.4 mm 3 mps 724 mmHg 92%
    01:00 0°C° 0.4 mm 3 mps 724 mmHg 94%
    02:00 +1°C° 0.6 mm 2 mps 724 mmHg 95%
    03:00 +1°C° 0.6 mm 2 mps 724 mmHg 95%
    04:00 +1°C° 0.6 mm 1 mps 724 mmHg 96%
    05:00 -1°C° 0.3 mm 2 mps 724 mmHg 95%
    06:00 -2°C° 0.3 mm 2 mps 725 mmHg 94%
    07:00 -2°C° 0.3 mm 2 mps 726 mmHg 93%
    08:00 -2°C° 0 mm 3 mps 726 mmHg 90%
    09:00 -1°C° 0 mm 3 mps 727 mmHg 87%
    10:00 -2°C° 0 mm 4 mps 728 mmHg 83%
    11:00 -2°C° 0 mm 4 mps 728 mmHg 81%
    12:00 -3°C° 0 mm 4 mps 728 mmHg 79%
    13:00 -3°C° 0 mm 4 mps 729 mmHg 77%
    14:00 -4°C° 0 mm 4 mps 729 mmHg 77%
    15:00 -5°C° 0 mm 4 mps 730 mmHg 77%
    16:00 -5°C° 0 mm 4 mps 730 mmHg 77%
    17:00 -7°C° 0 mm 4 mps 731 mmHg 78%
    18:00 -7°C° 0 mm 3 mps 732 mmHg 80%
    19:00 -8°C° 0 mm 3 mps 732 mmHg 81%
    20:00 -8°C° 0 mm 3 mps 732 mmHg 82%
    21:00 -8°C° 0 mm 2 mps 732 mmHg 82%
    22:00 -8°C° 0 mm 2 mps 733 mmHg 82%
    23:00 -8°C° 0 mm 2 mps 732 mmHg 83%

    Day after tomorrow, 23 November, Thursday

    Time Temperature Precipitation Wind Pressure Humidity
    00:00 -7°C° 0 mm 1 mps 732 mmHg 83%
    01:00 -7°C° 0 mm 1 mps 732 mmHg 84%
    02:00 -7°C° 0 mm 1 mps 732 mmHg 84%
    03:00 -7°C° 0 mm 1 mps 732 mmHg 85%
    04:00 -7°C° 0 mm 1 mps 732 mmHg 85%
    05:00 -7°C° 0 mm 1 mps 732 mmHg 85%
    06:00 -7°C° 0 mm 1 mps 731 mmHg 85%
    07:00 -7°C° 0 mm 1 mps 731 mmHg 85%
    08:00 -7°C° 0 mm 2 mps 731 mmHg 81%
    09:00 -6°C° 0 mm 2 mps 731 mmHg 77%
    10:00 -6°C° 0 mm 3 mps 730 mmHg 74%
    11:00 -6°C° 0 mm 3 mps 730 mmHg 73%
    12:00 -5°C° 0 mm 3 mps 729 mmHg 72%
    13:00 -4°C° 0 mm 3 mps 728 mmHg 71%
    14:00 -4°C° 0 mm 3 mps 728 mmHg 74%
    15:00 -4°C° 0 mm 3 mps 727 mmHg 76%
    16:00 -4°C° 0 mm 3 mps 727 mmHg 78%
    17:00 -4°C° 0 mm 3 mps 726 mmHg 81%
    18:00 -4°C° 0 mm 3 mps 726 mmHg 83%
    19:00 -5°C° 0 mm 3 mps 726 mmHg 85%
    20:00 -4°C° 0.1 mm 3 mps 726 mmHg 86%
    21:00 -4°C° 0.1 mm 3 mps 725 mmHg 86%
    22:00 -4°C° 0.1 mm 3 mps 725 mmHg 87%
    23:00 -4°C° 0.2 mm 3 mps 725 mmHg 88%

    24 November, Friday

    Time Temperature Precipitation Wind Pressure Humidity
    00:00 -4°C° 0.2 mm 3 mps 725 mmHg 89%
    01:00 -4°C° 0.2 mm 3 mps 725 mmHg 89%
    02:00 -4°C° 0.1 mm 3 mps 725 mmHg 90%
    03:00 -4°C° 0.1 mm 3 mps 725 mmHg 91%
    04:00 -4°C° 0.1 mm 3 mps 725 mmHg 92%
    05:00 -4°C° 0 mm 2 mps 726 mmHg 91%
    06:00 -5°C° 0 mm 2 mps 726 mmHg 90%
    07:00 -5°C° 0 mm 2 mps 726 mmHg 89%
    08:00 -3°C° 0 mm 1 mps 727 mmHg 83%
    09:00 -3°C° 0 mm 1 mps 727 mmHg 77%
    10:00 -2°C° 0 mm 1 mps 727 mmHg 70%
    11:00 -4°C° 0 mm 2 mps 727 mmHg 67%
    12:00 -3°C° 0 mm 2 mps 726 mmHg 64%
    13:00 -2°C° 0 mm 3 mps 726 mmHg 61%
    14:00 -3°C° 0 mm 2 mps 725 mmHg 67%
    15:00 -3°C° 0 mm 2 mps 724 mmHg 74%
    16:00 -4°C° 0 mm 2 mps 724 mmHg 80%
    17:00 -3°C° 0 mm 2 mps 723 mmHg 83%
    18:00 -2°C° 0 mm 3 mps 723 mmHg 86%
    19:00 -2°C° 0 mm 3 mps 722 mmHg 88%
    20:00 -2°C° 0.2 mm 4 mps 721 mmHg 87%
    21:00 -2°C° 0.2 mm 4 mps 720 mmHg 86%
    22:00 -2°C° 0.2 mm 5 mps 719 mmHg 86%
    23:00 -2°C° 0.1 mm 5 mps 718 mmHg 84%

    25 November, Saturday

    Time Temperature Precipitation Wind Pressure Humidity
    00:00 -2°C° 0.1 mm 5 mps 718 mmHg 83%
    01:00 -1°C° 0.1 mm 5 mps 717 mmHg 82%
    02:00 -1°C° 0.6 mm 5 mps 716 mmHg 82%
    03:00 -1°C° 0.6 mm 5 mps 716 mmHg 83%
    04:00 -1°C° 0.6 mm 5 mps 715 mmHg 83%
    05:00 0°C° 0.6 mm 5 mps 715 mmHg 86%
    06:00 0°C° 0.6 mm 5 mps 714 mmHg 89%
    07:00 0°C° 0.6 mm 5 mps 714 mmHg 91%
    08:00 0°C° 0.3 mm 5 mps 714 mmHg 92%
    09:00 +1°C° 0.3 mm 5 mps 714 mmHg 93%
    10:00 +1°C° 0.3 mm 5 mps 715 mmHg 94%
    11:00 +1°C° 0.1 mm 5 mps 715 mmHg 88%
    12:00 +2°C° 0.1 mm 5 mps 715 mmHg 83%
    13:00 +3°C° 0.1 mm 4 mps 715 mmHg 78%
    14:00 +1°C° 0 mm 4 mps 715 mmHg 82%
    15:00 +2°C° 0 mm 3 mps 716 mmHg 86%
    16:00 +2°C° 0 mm 2 mps 716 mmHg 90%
    17:00 +1°C° 0 mm 2 mps 716 mmHg 91%
    18:00 -1°C° 0 mm 2 mps 717 mmHg 93%
    19:00 -1°C° 0 mm 2 mps 717 mmHg 94%
    20:00 -2°C° 0 mm 2 mps 718 mmHg 94%
    21:00 -2°C° 0 mm 2 mps 718 mmHg 94%
    22:00 -2°C° 0 mm 2 mps 719 mmHg 94%
    23:00 -3°C° 0 mm 2 mps 719 mmHg 92%

    26 November, Sunday

    Time Temperature Precipitation Wind Pressure Humidity
    00:00 -4°C° 0 mm 3 mps 720 mmHg 89%
    01:00 -4°C° 0 mm 3 mps 720 mmHg 86%
    02:00 -5°C° 0.1 mm 4 mps 721 mmHg 83%
    03:00 -7°C° 0.1 mm 4 mps 721 mmHg 79%
    04:00 -9°C° 0.1 mm 4 mps 722 mmHg 75%
    05:00 -9°C° 0.1 mm 4 mps 722 mmHg 74%
    06:00 -9°C° 0.1 mm 4 mps 723 mmHg 73%
    07:00 -10°C° 0.1 mm 4 mps 724 mmHg 72%
    08:00 -10°C° 0 mm 4 mps 724 mmHg 70%
    09:00 -9°C° 0 mm 4 mps 724 mmHg 67%
    10:00 -9°C° 0 mm 4 mps 725 mmHg 65%
    11:00 -9°C° 0 mm 4 mps 725 mmHg 63%
    12:00 -8°C° 0 mm 4 mps 725 mmHg 62%
    13:00 -8°C° 0 mm 4 mps 725 mmHg 61%
    14:00 -8°C° 0 mm 4 mps 725 mmHg 63%
    15:00 -9°C° 0 mm 4 mps 725 mmHg 65%
    16:00 -9°C° 0 mm 4 mps 726 mmHg 68%
    17:00 -10°C° 0 mm 4 mps 726 mmHg 70%
    18:00 -10°C° 0 mm 4 mps 727 mmHg 72%
    19:00 -11°C° 0 mm 4 mps 727 mmHg 74%
    20:00 -11°C° 0 mm 4 mps 728 mmHg 74%
    21:00 -11°C° 0 mm 4 mps 728 mmHg 75%
    22:00 -11°C° 0 mm 4 mps 728 mmHg 75%
    23:00 -11°C° 0 mm 4 mps 728 mmHg 75%
    Show more